Flag for U.S.A. Weather past 2 weeks in Huntsville, Alabama, U.S.A.

Now
41 °F

Sunny.


Feels Like: 39 °F
Forecast: 30 / 52 °F
Wind: 3 mph from East

Location: Huntsville International / Jones Field

Current Time: Jan 28, 2015 at 10:44:56 AM

Latest Report: Jan 28, 2015 at 9:53 AM


Visibility: 10 mi

Pressure: 30.33 "Hg

Humidity: 55%

Dew point: 26 °F

Location of HuntsvilleLocation

Historic Weather in Huntsville — Graph

°F

Huntsville temperature yesterday

Maximum temperature yesterday: 53 °F (at 1:53 PM)
Minimum temperature yesterday: 33 °F (at 5:53 AM)
Average temperature yesterday: 43 °F

Past Weeks' High & Low Weather Summary

 TemperatureHumidityPressure
High66 °F (Jan 19, 1:53 PM)93% (Jan 16, 2:53 AM)30.40 "Hg (Jan 16, 2:53 AM)
Low27 °F (Jan 16, 4:04 AM)24% (Jan 19, 2:53 PM)29.69 "Hg (Jan 25, 1:53 PM)
Average42 °F68%30.10 "Hg
* Reported Jan 13 9:53 AM — Jan 28 9:53 AM, Huntsville, Weather by CustomWeather, © 2014

Note: Actual official high and low records may vary slightly from our data, if they occured in-between our weather recording intervals... More about our weather records

Advertising

Huntsville weather history for previous 24 hours

 ConditionsComfort  
Time TempWeatherWind HumidityBarometerVisibility
9:53 AM
Jan 28
41 °FSunny.3 mph55%30.33 "Hg10 mi
8:53 AM39 °FSunny.6 mph60%30.33 "Hg10 mi
7:53 AM36 °FPassing clouds.6 mph67%30.31 "Hg10 mi
6:53 AM32 °FPassing clouds.6 mph73%30.30 "Hg10 mi
5:53 AM33 °FPassing clouds.6 mph75%30.27 "Hg10 mi
4:53 AM36 °FOvercast.7 mph67%30.24 "Hg10 mi
3:53 AM36 °FOvercast.10 mph67%30.23 "Hg10 mi
2:53 AM37 °FOvercast.13 mph65%30.22 "Hg10 mi
1:53 AM37 °FOvercast.12 mph70%30.21 "Hg10 mi
12:53 AM38 °FOvercast.13 mph65%30.19 "Hg10 mi
11:53 PM
Jan 27
39 °FOvercast.12 mph62%30.20 "Hg10 mi
10:53 PM39 °FPassing clouds.10 mph60%30.20 "Hg10 mi
9:53 PM39 °FPassing clouds.13 mph60%30.19 "Hg10 mi
8:53 PM38 °FClear.7 mph73%30.19 "Hg10 mi
7:53 PM39 °FClear.8 mph73%30.16 "Hg10 mi
6:53 PM43 °FClear.14 mph62%30.14 "Hg10 mi
5:53 PM47 °FPassing clouds.6 mph52%30.10 "Hg10 mi
4:53 PM50 °FPassing clouds.7 mph46%30.08 "Hg10 mi
3:53 PM52 °FPassing clouds.12 mph43%30.06 "Hg10 mi
2:53 PM53 °FScattered clouds.9 mph41%30.05 "Hg10 mi
1:53 PM53 °FScattered clouds.15 mph39%30.04 "Hg10 mi
12:53 PM52 °FScattered clouds.15 mph45%30.04 "Hg10 mi
11:53 AM52 °FScattered clouds.16 mph47%30.04 "Hg10 mi
10:53 AM50 °FScattered clouds.13 mph54%30.05 "Hg10 mi
Weather by CustomWeather, © 2014

See weather overviewHow to use our weather pages